Regional Weather Roundup
Issued by NWS State College, PA

Home | Current Version | Previous Version | Graphics & Text | Print | Product List | Glossary On
Versions: 1 2 3 4 5 6 7 8 9 10 11 12 13 14 15 16 17 18 19 20 21 22 23 24 25 26 27 28 29 30 31 32 33 34 35 36 37 38 39 40 41 42 43 44 45 46 47 48 49 50
000
ASUS41 KCTP 220610
RWRCTP

REGIONAL WEATHER ROUNDUP
NATIONAL WEATHER SERVICE STATE COLLEGE PA
200 AM EDT SAT JUL 22 2017

Note: "fair" indicates few or no clouds below 12,000 feet with no
significant weather and/or obstructions to visibility.

* = STATION THAT DOES NOT REPORT PRECIPITATION /E.G. RAIN...SNOW...ETC/
    THUNDER OR FOG.

PAZ002>004-007>009-013>016-020>023-029>032-220700-
WESTERN PENNSYLVANIA

CITY           SKY/WX    TMP DP  RH WIND       PRES   REMARKS
ERIE           CLOUDY    70  64  81 CALM      29.97F
MEADVILLE      CLOUDY    69  65  86 CALM      30.00F
FRANKLIN*      CLOUDY    66  63  88 CALM      30.01F
NEW CASTLE     FAIR      71  70  96 CALM      29.99F
BEAVER COUNTY  NOT AVBL
BUTLER*        PTCLDY    72  70  94 CALM      30.00S
PITTSBURGH INT MOCLDY    75  73  93 SW5       29.99F
PITTSBURGH     CLOUDY    74  69  85 S5        29.99F
INDIANA*       CLOUDY    73  73 100 SW6       30.03F FOG
LATROBE        CLOUDY    73  73 100 S8        30.01F
WASHINGTON CO* CLOUDY    73  70  88 CALM      30.00F
$$

PAZ004>006-010>012-017>019-024>028-033>037-041-042-045-046-049>053-220700-
CENTRAL PENNSYLVANIA

CITY           SKY/WX    TMP DP  RH WIND       PRES   REMARKS
BRADFORD       CLEAR     61  61 100 CALM      30.03S
DUBOIS         PTCLDY    67  65  93 CALM      30.01F FOG
CLEARFIELD     PTCLDY    68  67  96 CALM      30.00F
JOHNSTOWN      CLOUDY    70  70 100 W6        30.05S FOG
ALTOONA        MOCLDY    72  71  97 NW5       30.02R
STATE COLLEGE  PTCLDY    72  66  82 CALM      29.98F
WILLIAMSPORT   PTCLDY    73  69  87 CALM      29.93S
SELINSGROVE    CLEAR     72  71  97 CALM      29.94R
FT INDIANTOWN  CLEAR     79  70  74 NW6       29.91S
CAPITAL CITY   CLEAR     79  72  79 CALM      29.91R
HARRISBURG     PTCLDY    79  75  87 NW9       29.89S
YORK           PTCLDY    72  72 100 CALM      29.92R
$$

PAZ038>040-043-044-047-048-054-055-060>062-067>071-220700-
EASTERN PENNSYLVANIA

CITY           SKY/WX    TMP DP  RH WIND       PRES   REMARKS
SCRANTON       MOCLDY    72  70  93 CALM      29.95R
MOUNT POCONO   PTCLDY    67  67 100 N5        29.99S
ALLENTOWN      PTCLDY    77  70  79 W3        29.90R
QUAKERTOWN*    PTCLDY    73  72  94 CALM      29.91S
READING        CLOUDY    76  74  93 N3        29.89S
LANCASTER      PTCLDY    79  75  87 CALM      29.90S
COATESVILLE    CLEAR     79  72  78 W3        29.93S
POTTSTOWN      PTCLDY    73  73 100 CALM      29.91F
BLUE BELL      PTCLDY    72  72 100 CALM      29.91S
DOYLESTOWN     PTCLDY    77  72  84 CALM      29.89F
WILLOW GROVE   NOT AVBL
NORTH PHILA    MOCLDY    83  72  69 CALM      29.89F
PHILADELPHIA   MOCLDY    83  74  74 SW5       29.89S
$$




USA.gov is the U.S. government's official web portal to all federal, state and local government web resources and services.